owner,sensor,date,latitude,longitude,vertical_datum,direction_of_sea_water_velocity,sea_water_speed,upward_sea_water_velocity,qcFlag 
WAVCIS,ioos:station:WAVCIS:CSI16:1,2012-05-01T00:00:00Z,29.4012,-89.0355,10.36,74.0,0.145,-99999.0,'11133222,11111222,99999999' 
WAVCIS,ioos:station:WAVCIS:CSI16:1,2012-05-01T01:00:00Z,29.4012,-89.0355,10.36,92.0,0.188,-99999.0,'11133222,11111222,99999999' 
WAVCIS,ioos:station:WAVCIS:CSI16:1,2012-05-01T02:00:00Z,29.4012,-89.0355,10.36,129.0,0.203,-99999.0,'11133222,11111222,99999999' 
WAVCIS,ioos:station:WAVCIS:CSI16:1,2012-05-01T03:00:00Z,29.4012,-89.0355,10.36,138.0,0.182,-99999.0,'11133222,11111222,99999999' 
WAVCIS,ioos:station:WAVCIS:CSI16:1,2012-05-01T04:00:00Z,29.4012,-89.0355,10.36,148.0,0.237,-99999.0,'11133222,11111222,99999999' 
WAVCIS,ioos:station:WAVCIS:CSI16:1,2012-05-01T05:00:00Z,29.4012,-89.0355,10.36,148.0,0.239,-99999.0,'11133222,11111222,99999999' 
WAVCIS,ioos:station:WAVCIS:CSI16:1,2012-05-01T06:00:00Z,29.4012,-89.0355,10.36,155.0,0.25,-99999.0,'11133222,11111222,99999999' 
WAVCIS,ioos:station:WAVCIS:CSI16:1,2012-05-01T07:00:00Z,29.4012,-89.0355,10.36,170.0,0.231,-99999.0,'11133222,11111222,99999999' 
WAVCIS,ioos:station:WAVCIS:CSI16:1,2012-05-01T08:00:00Z,29.4012,-89.0355,10.36,177.0,0.211,-99999.0,'11133222,11111222,99999999' 
WAVCIS,ioos:station:WAVCIS:CSI16:1,2012-05-01T09:00:00Z,29.4012,-89.0355,10.36,193.0,0.194,-99999.0,'11133222,11111222,99999999' 
WAVCIS,ioos:station:WAVCIS:CSI16:1,2012-05-01T10:00:00Z,29.4012,-89.0355,10.36,204.0,0.232,-99999.0,'11133222,11111222,99999999' 
WAVCIS,ioos:station:WAVCIS:CSI16:1,2012-05-01T11:00:00Z,29.4012,-89.0355,10.36,223.0,0.282,-99999.0,'11133222,11111222,99999999' 
WAVCIS,ioos:station:WAVCIS:CSI16:1,2012-05-01T12:00:00Z,29.4012,-89.0355,10.36,222.0,0.305,-99999.0,'11133222,11111222,99999999' 
WAVCIS,ioos:station:WAVCIS:CSI16:1,2012-05-01T13:00:00Z,29.4012,-89.0355,10.36,224.0,0.343,-99999.0,'11133222,11111222,99999999' 
WAVCIS,ioos:station:WAVCIS:CSI16:1,2012-05-01T14:00:00Z,29.4012,-89.0355,10.36,217.0,0.302,-99999.0,'11133222,11111222,99999999' 
WAVCIS,ioos:station:WAVCIS:CSI16:1,2012-05-01T15:00:00Z,29.4012,-89.0355,10.36,217.0,0.271,-99999.0,'11133222,11111222,99999999' 
WAVCIS,ioos:station:WAVCIS:CSI16:1,2012-05-01T16:00:00Z,29.4012,-89.0355,10.36,216.0,0.231,-99999.0,'11133222,11111222,99999999' 
WAVCIS,ioos:station:WAVCIS:CSI16:1,2012-05-01T17:00:00Z,29.4012,-89.0355,10.36,206.0,0.287,-99999.0,'11133222,11111222,99999999' 
WAVCIS,ioos:station:WAVCIS:CSI16:1,2012-05-01T18:00:00Z,29.4012,-89.0355,10.36,199.0,0.181,-99999.0,'11133222,11111222,99999999' 
WAVCIS,ioos:station:WAVCIS:CSI16:1,2012-05-01T19:00:00Z,29.4012,-89.0355,10.36,186.0,0.173,-99999.0,'11133222,11111222,99999999' 
WAVCIS,ioos:station:WAVCIS:CSI16:1,2012-05-01T20:00:00Z,29.4012,-89.0355,10.36,182.0,0.174,-99999.0,'11133222,11111222,99999999' 
WAVCIS,ioos:station:WAVCIS:CSI16:1,2012-05-01T21:00:00Z,29.4012,-89.0355,10.36,175.0,0.248,-99999.0,'11133222,11111222,99999999' 
WAVCIS,ioos:station:WAVCIS:CSI16:1,2012-05-01T22:00:00Z,29.4012,-89.0355,10.36,178.0,0.212,-99999.0,'11133222,11111222,99999999' 
WAVCIS,ioos:station:WAVCIS:CSI16:1,2012-05-01T23:00:00Z,29.4012,-89.0355,9.86,178.0,0.188,-99999.0,'11133222,11111222,99999999' 
WAVCIS,ioos:station:WAVCIS:CSI16:1,2012-05-02T00:00:00Z,29.4012,-89.0355,9.86,190.0,0.275,-99999.0,'11133222,11111222,99999999' 
WAVCIS,ioos:station:WAVCIS:CSI16:1,2012-05-02T01:00:00Z,29.4012,-89.0355,9.86,188.0,0.251,-99999.0,'11133222,11111222,99999999' 
WAVCIS,ioos:station:WAVCIS:CSI16:1,2012-05-02T02:00:00Z,29.4012,-89.0355,9.86,181.0,0.213,-99999.0,'11133222,11111222,99999999' 
WAVCIS,ioos:station:WAVCIS:CSI16:1,2012-05-02T03:00:00Z,29.4012,-89.0355,9.86,176.0,0.162,-99999.0,'11133222,11111222,99999999' 
WAVCIS,ioos:station:WAVCIS:CSI16:1,2012-05-02T04:00:00Z,29.4012,-89.0355,9.86,181.0,0.161,-99999.0,'11133222,11111222,99999999' 
WAVCIS,ioos:station:WAVCIS:CSI16:1,2012-05-02T05:00:00Z,29.4012,-89.0355,9.86,179.0,0.159,-99999.0,'11133222,11111222,99999999' 
WAVCIS,ioos:station:WAVCIS:CSI16:1,2012-05-02T06:00:00Z,29.4012,-89.0355,9.86,171.0,0.167,-99999.0,'11133222,11111222,99999999' 
WAVCIS,ioos:station:WAVCIS:CSI16:1,2012-05-02T07:00:00Z,29.4012,-89.0355,10.36,175.0,0.172,-99999.0,'11133222,11111222,99999999' 
WAVCIS,ioos:station:WAVCIS:CSI16:1,2012-05-02T08:00:00Z,29.4012,-89.0355,9.86,172.0,0.189,-99999.0,'11133222,11111222,99999999' 
WAVCIS,ioos:station:WAVCIS:CSI16:1,2012-05-02T09:00:00Z,29.4012,-89.0355,9.86,175.0,0.182,-99999.0,'11133222,11111222,99999999' 
WAVCIS,ioos:station:WAVCIS:CSI16:1,2012-05-02T10:00:00Z,29.4012,-89.0355,10.36,168.0,0.203,-99999.0,'11133222,11111222,99999999' 
WAVCIS,ioos:station:WAVCIS:CSI16:1,2012-05-02T11:00:00Z,29.4012,-89.0355,10.36,171.0,0.165,-99999.0,'11133222,11111222,99999999' 
WAVCIS,ioos:station:WAVCIS:CSI16:1,2012-05-02T12:00:00Z,29.4012,-89.0355,10.36,171.0,0.144,-99999.0,'11133222,11111222,99999999' 
WAVCIS,ioos:station:WAVCIS:CSI16:1,2012-05-02T13:00:00Z,29.4012,-89.0355,10.36,179.0,0.128,-99999.0,'11133222,11111222,99999999' 
WAVCIS,ioos:station:WAVCIS:CSI16:1,2012-05-02T14:00:00Z,29.4012,-89.0355,10.36,180.0,0.082,-99999.0,'11133222,11111222,99999999' 
WAVCIS,ioos:station:WAVCIS:CSI16:1,2012-05-02T15:00:00Z,29.4012,-89.0355,10.36,176.0,0.067,-99999.0,'11133222,11111222,99999999' 
WAVCIS,ioos:station:WAVCIS:CSI16:1,2012-05-02T16:00:00Z,29.4012,-89.0355,10.36,161.0,0.062,-99999.0,'11133222,11111222,99999999' 
WAVCIS,ioos:station:WAVCIS:CSI16:1,2012-05-02T17:00:00Z,29.4012,-89.0355,10.36,140.0,0.05,-99999.0,'11133222,11111222,99999999' 
WAVCIS,ioos:station:WAVCIS:CSI16:1,2012-05-02T18:00:00Z,29.4012,-89.0355,10.36,158.0,0.102,-99999.0,'11133222,11111222,99999999' 
WAVCIS,ioos:station:WAVCIS:CSI16:1,2012-05-02T19:00:00Z,29.4012,-89.0355,10.36,152.0,0.145,-99999.0,'11133222,11111222,99999999' 
WAVCIS,ioos:station:WAVCIS:CSI16:1,2012-05-02T20:00:00Z,29.4012,-89.0355,10.36,150.0,0.163,-99999.0,'11133222,11111222,99999999' 
WAVCIS,ioos:station:WAVCIS:CSI16:1,2012-05-02T21:00:00Z,29.4012,-89.0355,10.36,136.0,0.217,-99999.0,'11133222,11111222,99999999' 
WAVCIS,ioos:station:WAVCIS:CSI16:1,2012-05-02T22:00:00Z,29.4012,-89.0355,10.36,141.0,0.223,-99999.0,'11133222,11111222,99999999' 
WAVCIS,ioos:station:WAVCIS:CSI16:1,2012-05-02T23:00:00Z,29.4012,-89.0355,10.36,143.0,0.225,-99999.0,'11133222,11111222,99999999' 
WAVCIS,ioos:station:WAVCIS:CSI16:1,2012-05-03T00:00:00Z,29.4012,-89.0355,10.36,141.0,0.249,-99999.0,'11133222,11111222,99999999' 
WAVCIS,ioos:station:WAVCIS:CSI16:1,2012-05-03T01:00:00Z,29.4012,-89.0355,10.36,140.0,0.225,-99999.0,'11133222,11111222,99999999' 
WAVCIS,ioos:station:WAVCIS:CSI16:1,2012-05-03T02:00:00Z,29.4012,-89.0355,10.36,141.0,0.175,-99999.0,'11133222,11111222,99999999' 
WAVCIS,ioos:station:WAVCIS:CSI16:1,2012-05-03T03:00:00Z,29.4012,-89.0355,10.36,119.0,0.177,-99999.0,'11133222,11111222,99999999' 
WAVCIS,ioos:station:WAVCIS:CSI16:1,2012-05-03T04:00:00Z,29.4012,-89.0355,10.36,155.0,0.173,-99999.0,'11133222,11111222,99999999' 
WAVCIS,ioos:station:WAVCIS:CSI16:1,2012-05-03T05:00:00Z,29.4012,-89.0355,10.36,154.0,0.113,-99999.0,'11133222,11111222,99999999' 
WAVCIS,ioos:station:WAVCIS:CSI16:1,2012-05-03T06:00:00Z,29.4012,-89.0355,10.36,162.0,0.063,-99999.0,'11133222,11111222,99999999' 
WAVCIS,ioos:station:WAVCIS:CSI16:1,2012-05-03T07:00:00Z,29.4012,-89.0355,10.36,171.0,0.098,-99999.0,'11133222,11111222,99999999' 
WAVCIS,ioos:station:WAVCIS:CSI16:1,2012-05-03T08:00:00Z,29.4012,-89.0355,10.36,148.0,0.022,-99999.0,'11133222,11111222,99999999' 
WAVCIS,ioos:station:WAVCIS:CSI16:1,2012-05-03T09:00:00Z,29.4012,-89.0355,10.36,135.0,0.004,-99999.0,'11133222,11111222,99999999' 
WAVCIS,ioos:station:WAVCIS:CSI16:1,2012-05-03T10:00:00Z,29.4012,-89.0355,10.36,134.0,0.069,-99999.0,'11133222,11111222,99999999' 
WAVCIS,ioos:station:WAVCIS:CSI16:1,2012-05-03T11:00:00Z,29.4012,-89.0355,10.36,104.0,0.123,-99999.0,'11133222,11111222,99999999' 
WAVCIS,ioos:station:WAVCIS:CSI16:1,2012-05-03T12:00:00Z,29.4012,-89.0355,10.36,116.0,0.153,-99999.0,'11133222,11111222,99999999' 
WAVCIS,ioos:station:WAVCIS:CSI16:1,2012-05-03T13:00:00Z,29.4012,-89.0355,10.36,115.0,0.198,-99999.0,'11133222,11111222,99999999' 
WAVCIS,ioos:station:WAVCIS:CSI16:1,2012-05-03T14:00:00Z,29.4012,-89.0355,10.36,115.0,0.281,-99999.0,'11133222,11111222,99999999' 
WAVCIS,ioos:station:WAVCIS:CSI16:1,2012-05-03T15:00:00Z,29.4012,-89.0355,10.36,115.0,0.29,-99999.0,'11133222,11111222,99999999' 
WAVCIS,ioos:station:WAVCIS:CSI16:1,2012-05-03T16:00:00Z,29.4012,-89.0355,10.36,130.0,0.278,-99999.0,'11133222,11111222,99999999' 
WAVCIS,ioos:station:WAVCIS:CSI16:1,2012-05-03T17:00:00Z,29.4012,-89.0355,10.36,155.0,0.252,-99999.0,'11133222,11111222,99999999' 
WAVCIS,ioos:station:WAVCIS:CSI16:1,2012-05-03T18:00:00Z,29.4012,-89.0355,10.36,137.0,0.267,-99999.0,'11133222,11111222,99999999' 
WAVCIS,ioos:station:WAVCIS:CSI16:1,2012-05-03T19:00:00Z,29.4012,-89.0355,10.36,144.0,0.264,-99999.0,'11133222,11111222,99999999' 
WAVCIS,ioos:station:WAVCIS:CSI16:1,2012-05-03T20:00:00Z,29.4012,-89.0355,10.36,162.0,0.258,-99999.0,'11133222,11111222,99999999' 
WAVCIS,ioos:station:WAVCIS:CSI16:1,2012-05-03T21:00:00Z,29.4012,-89.0355,10.36,151.0,0.232,-99999.0,'11133222,11111222,99999999' 
WAVCIS,ioos:station:WAVCIS:CSI16:1,2012-05-03T22:00:00Z,29.4012,-89.0355,10.36,155.0,0.268,-99999.0,'11133222,11111222,99999999' 
WAVCIS,ioos:station:WAVCIS:CSI16:1,2012-05-03T23:00:00Z,29.4012,-89.0355,10.36,155.0,0.235,-99999.0,'11133222,11111222,99999999' 
WAVCIS,ioos:station:WAVCIS:CSI16:1,2012-05-04T00:00:00Z,29.4012,-89.0355,10.36,155.0,0.255,-99999.0,'11133222,11111222,99999999' 
WAVCIS,ioos:station:WAVCIS:CSI16:1,2012-05-04T01:00:00Z,29.4012,-89.0355,10.36,167.0,0.322,-99999.0,'11133222,11111222,99999999' 
WAVCIS,ioos:station:WAVCIS:CSI16:1,2012-05-04T02:00:00Z,29.4012,-89.0355,10.36,172.0,0.349,-99999.0,'11133222,11111222,99999999' 
WAVCIS,ioos:station:WAVCIS:CSI16:1,2012-05-04T03:00:00Z,29.4012,-89.0355,10.36,178.0,0.4,-99999.0,'11133222,11111222,99999999' 
WAVCIS,ioos:station:WAVCIS:CSI16:1,2012-05-04T04:00:00Z,29.4012,-89.0355,10.36,191.0,0.252,-99999.0,'11133222,11111222,99999999' 
WAVCIS,ioos:station:WAVCIS:CSI16:1,2012-05-04T05:00:00Z,29.4012,-89.0355,10.36,186.0,0.231,-99999.0,'11133222,11111222,99999999' 
WAVCIS,ioos:station:WAVCIS:CSI16:1,2012-05-04T06:00:00Z,29.4012,-89.0355,10.36,190.0,0.264,-99999.0,'11133222,11111222,99999999' 
WAVCIS,ioos:station:WAVCIS:CSI16:1,2012-05-04T07:00:00Z,29.4012,-89.0355,10.36,189.0,0.21,-99999.0,'11133222,11111222,99999999' 
WAVCIS,ioos:station:WAVCIS:CSI16:1,2012-05-04T08:00:00Z,29.4012,-89.0355,10.36,187.0,0.203,-99999.0,'11133222,11111222,99999999' 
WAVCIS,ioos:station:WAVCIS:CSI16:1,2012-05-04T09:00:00Z,29.4012,-89.0355,10.86,191.0,0.221,-99999.0,'11133222,11111222,99999999' 
WAVCIS,ioos:station:WAVCIS:CSI16:1,2012-05-04T10:00:00Z,29.4012,-89.0355,10.86,191.0,0.208,-99999.0,'11133222,11111222,99999999' 
WAVCIS,ioos:station:WAVCIS:CSI16:1,2012-05-04T11:00:00Z,29.4012,-89.0355,10.86,185.0,0.22,-99999.0,'11133222,11111222,99999999' 
WAVCIS,ioos:station:WAVCIS:CSI16:1,2012-05-04T12:00:00Z,29.4012,-89.0355,10.86,189.0,0.192,-99999.0,'11133222,11111222,99999999' 
WAVCIS,ioos:station:WAVCIS:CSI16:1,2012-05-04T13:00:00Z,29.4012,-89.0355,10.86,184.0,0.223,-99999.0,'11133222,11111222,99999999' 
WAVCIS,ioos:station:WAVCIS:CSI16:1,2012-05-04T14:00:00Z,29.4012,-89.0355,10.86,156.0,0.245,-99999.0,'11133222,11111222,99999999' 
WAVCIS,ioos:station:WAVCIS:CSI16:1,2012-05-04T15:00:00Z,29.4012,-89.0355,10.86,171.0,0.266,-99999.0,'11133222,11111222,99999999' 
WAVCIS,ioos:station:WAVCIS:CSI16:1,2012-05-04T16:00:00Z,29.4012,-89.0355,10.86,174.0,0.28,-99999.0,'11133222,11111222,99999999' 
WAVCIS,ioos:station:WAVCIS:CSI16:1,2012-05-04T17:00:00Z,29.4012,-89.0355,10.86,164.0,0.304,-99999.0,'11133222,11111222,99999999' 
WAVCIS,ioos:station:WAVCIS:CSI16:1,2012-05-04T18:00:00Z,29.4012,-89.0355,10.36,161.0,0.248,-99999.0,'11133222,11111222,99999999' 
WAVCIS,ioos:station:WAVCIS:CSI16:1,2012-05-04T19:00:00Z,29.4012,-89.0355,10.36,158.0,0.254,-99999.0,'11133222,11111222,99999999' 
WAVCIS,ioos:station:WAVCIS:CSI16:1,2012-05-04T20:00:00Z,29.4012,-89.0355,10.36,163.0,0.464,-99999.0,'11133222,11111222,99999999' 
WAVCIS,ioos:station:WAVCIS:CSI16:1,2012-05-04T21:00:00Z,29.4012,-89.0355,10.36,161.0,0.431,-99999.0,'11133222,11111222,99999999' 
WAVCIS,ioos:station:WAVCIS:CSI16:1,2012-05-04T22:00:00Z,29.4012,-89.0355,10.36,161.0,0.348,-99999.0,'11133222,11111222,99999999' 
WAVCIS,ioos:station:WAVCIS:CSI16:1,2012-05-04T23:00:00Z,29.4012,-89.0355,10.36,184.0,0.244,-99999.0,'11133222,11111222,99999999' 
WAVCIS,ioos:station:WAVCIS:CSI16:1,2012-05-05T00:00:00Z,29.4012,-89.0355,10.36,226.0,0.228,-99999.0,'11133222,11111222,99999999' 
WAVCIS,ioos:station:WAVCIS:CSI16:1,2012-05-05T01:00:00Z,29.4012,-89.0355,10.36,243.0,0.276,-99999.0,'11133222,11111222,99999999' 
WAVCIS,ioos:station:WAVCIS:CSI16:1,2012-05-05T02:00:00Z,29.4012,-89.0355,10.36,243.0,0.237,-99999.0,'11133222,11111222,99999999' 
WAVCIS,ioos:station:WAVCIS:CSI16:1,2012-05-05T03:00:00Z,29.4012,-89.0355,10.36,244.0,0.231,-99999.0,'11133222,11111222,99999999' 
WAVCIS,ioos:station:WAVCIS:CSI16:1,2012-05-05T04:00:00Z,29.4012,-89.0355,10.36,243.0,0.246,-99999.0,'11133222,11111222,99999999' 
WAVCIS,ioos:station:WAVCIS:CSI16:1,2012-05-05T05:00:00Z,29.4012,-89.0355,10.36,238.0,0.287,-99999.0,'11133222,11111222,99999999' 
WAVCIS,ioos:station:WAVCIS:CSI16:1,2012-05-05T06:00:00Z,29.4012,-89.0355,10.86,230.0,0.279,-99999.0,'11133222,11111222,99999999' 
WAVCIS,ioos:station:WAVCIS:CSI16:1,2012-05-05T07:00:00Z,29.4012,-89.0355,10.86,221.0,0.245,-99999.0,'11133222,11111222,99999999' 
WAVCIS,ioos:station:WAVCIS:CSI16:1,2012-05-05T08:00:00Z,29.4012,-89.0355,10.86,219.0,0.212,-99999.0,'11133222,11111222,99999999' 
WAVCIS,ioos:station:WAVCIS:CSI16:1,2012-05-05T09:00:00Z,29.4012,-89.0355,10.86,201.0,0.164,-99999.0,'11133222,11111222,99999999' 
WAVCIS,ioos:station:WAVCIS:CSI16:1,2012-05-05T10:00:00Z,29.4012,-89.0355,10.86,189.0,0.144,-99999.0,'11133222,11111222,99999999' 
WAVCIS,ioos:station:WAVCIS:CSI16:1,2012-05-05T11:00:00Z,29.4012,-89.0355,10.86,142.0,0.143,-99999.0,'11133222,11111222,99999999' 
WAVCIS,ioos:station:WAVCIS:CSI16:1,2012-05-05T12:00:00Z,29.4012,-89.0355,10.86,136.0,0.062,-99999.0,'11133222,11111222,99999999' 
WAVCIS,ioos:station:WAVCIS:CSI16:1,2012-05-05T13:00:00Z,29.4012,-89.0355,10.86,201.0,0.129,-99999.0,'11133222,11111222,99999999' 
WAVCIS,ioos:station:WAVCIS:CSI16:1,2012-05-05T14:00:00Z,29.4012,-89.0355,10.86,189.0,0.159,-99999.0,'11133222,11111222,99999999' 
WAVCIS,ioos:station:WAVCIS:CSI16:1,2012-05-05T15:00:00Z,29.4012,-89.0355,10.86,180.0,0.218,-99999.0,'11133222,11111222,99999999' 
WAVCIS,ioos:station:WAVCIS:CSI16:1,2012-05-05T16:00:00Z,29.4012,-89.0355,10.86,179.0,0.203,-99999.0,'11133222,11111222,99999999' 
WAVCIS,ioos:station:WAVCIS:CSI16:1,2012-05-05T17:00:00Z,29.4012,-89.0355,10.86,160.0,0.251,-99999.0,'11133222,11111222,99999999' 
WAVCIS,ioos:station:WAVCIS:CSI16:1,2012-05-05T18:00:00Z,29.4012,-89.0355,10.86,155.0,0.266,-99999.0,'11133222,11111222,99999999' 
WAVCIS,ioos:station:WAVCIS:CSI16:1,2012-05-05T19:00:00Z,29.4012,-89.0355,10.36,153.0,0.233,-99999.0,'11133222,11111222,99999999' 
WAVCIS,ioos:station:WAVCIS:CSI16:1,2012-05-05T20:00:00Z,29.4012,-89.0355,10.36,155.0,0.254,-99999.0,'11133222,11111222,99999999' 
WAVCIS,ioos:station:WAVCIS:CSI16:1,2012-05-05T21:00:00Z,29.4012,-89.0355,10.36,153.0,0.293,-99999.0,'11133222,11111222,99999999' 
WAVCIS,ioos:station:WAVCIS:CSI16:1,2012-05-05T22:00:00Z,29.4012,-89.0355,10.36,158.0,0.335,-99999.0,'11133222,11111222,99999999' 
WAVCIS,ioos:station:WAVCIS:CSI16:1,2012-05-05T23:00:00Z,29.4012,-89.0355,10.36,168.0,0.315,-99999.0,'11133222,11111222,99999999' 
WAVCIS,ioos:station:WAVCIS:CSI16:1,2012-05-06T00:00:00Z,29.4012,-89.0355,10.36,179.0,0.296,-99999.0,'11133222,11111222,99999999' 
WAVCIS,ioos:station:WAVCIS:CSI16:1,2012-05-06T01:00:00Z,29.4012,-89.0355,10.36,199.0,0.145,-99999.0,'11133222,11111222,99999999' 
WAVCIS,ioos:station:WAVCIS:CSI16:1,2012-05-06T02:00:00Z,29.4012,-89.0355,10.36,211.0,0.159,-99999.0,'11133222,11111222,99999999' 
WAVCIS,ioos:station:WAVCIS:CSI16:1,2012-05-06T03:00:00Z,29.4012,-89.0355,10.36,236.0,0.127,-99999.0,'11133222,11111222,99999999' 
WAVCIS,ioos:station:WAVCIS:CSI16:1,2012-05-06T04:00:00Z,29.4012,-89.0355,10.36,247.0,0.175,-99999.0,'11133222,11111222,99999999' 
WAVCIS,ioos:station:WAVCIS:CSI16:1,2012-05-06T05:00:00Z,29.4012,-89.0355,10.36,224.0,0.1,-99999.0,'11133222,11111222,99999999' 
WAVCIS,ioos:station:WAVCIS:CSI16:1,2012-05-06T06:00:00Z,29.4012,-89.0355,10.86,206.0,0.073,-99999.0,'11133222,11111222,99999999' 
WAVCIS,ioos:station:WAVCIS:CSI16:1,2012-05-06T07:00:00Z,29.4012,-89.0355,10.86,261.0,0.074,-99999.0,'11133222,11111222,99999999' 
WAVCIS,ioos:station:WAVCIS:CSI16:1,2012-05-06T08:00:00Z,29.4012,-89.0355,10.86,213.0,0.05,-99999.0,'11133222,11111222,99999999' 
WAVCIS,ioos:station:WAVCIS:CSI16:1,2012-05-06T09:00:00Z,29.4012,-89.0355,10.86,209.0,0.087,-99999.0,'11133222,11111222,99999999' 
WAVCIS,ioos:station:WAVCIS:CSI16:1,2012-05-06T10:00:00Z,29.4012,-89.0355,10.86,212.0,0.078,-99999.0,'11133222,11111222,99999999' 
WAVCIS,ioos:station:WAVCIS:CSI16:1,2012-05-06T11:00:00Z,29.4012,-89.0355,10.86,253.0,0.097,-99999.0,'11133222,11111222,99999999' 
WAVCIS,ioos:station:WAVCIS:CSI16:1,2012-05-06T12:00:00Z,29.4012,-89.0355,10.86,251.0,0.079,-99999.0,'11133222,11111222,99999999' 
WAVCIS,ioos:station:WAVCIS:CSI16:1,2012-05-06T13:00:00Z,29.4012,-89.0355,10.86,301.0,0.086,-99999.0,'11133222,11111222,99999999' 
WAVCIS,ioos:station:WAVCIS:CSI16:1,2012-05-06T14:00:00Z,29.4012,-89.0355,10.86,288.0,0.098,-99999.0,'11133222,11111222,99999999' 
WAVCIS,ioos:station:WAVCIS:CSI16:1,2012-05-06T15:00:00Z,29.4012,-89.0355,10.86,299.0,0.082,-99999.0,'11133222,11111222,99999999' 
WAVCIS,ioos:station:WAVCIS:CSI16:1,2012-05-06T16:00:00Z,29.4012,-89.0355,10.86,347.0,0.049,-99999.0,'11133222,11111222,99999999' 
WAVCIS,ioos:station:WAVCIS:CSI16:1,2012-05-06T17:00:00Z,29.4012,-89.0355,10.86,63.0,0.063,-99999.0,'11133222,11111222,99999999' 
WAVCIS,ioos:station:WAVCIS:CSI16:1,2012-05-06T18:00:00Z,29.4012,-89.0355,10.86,112.0,0.125,-99999.0,'11133222,11111222,99999999' 
WAVCIS,ioos:station:WAVCIS:CSI16:1,2012-05-06T19:00:00Z,29.4012,-89.0355,10.86,108.0,0.181,-99999.0,'11133222,11111222,99999999' 
WAVCIS,ioos:station:WAVCIS:CSI16:1,2012-05-06T20:00:00Z,29.4012,-89.0355,10.36,115.0,0.288,-99999.0,'11133222,11111222,99999999' 
WAVCIS,ioos:station:WAVCIS:CSI16:1,2012-05-06T21:00:00Z,29.4012,-89.0355,10.36,131.0,0.245,-99999.0,'11133222,11111222,99999999' 
WAVCIS,ioos:station:WAVCIS:CSI16:1,2012-05-06T22:00:00Z,29.4012,-89.0355,10.36,143.0,0.151,-99999.0,'11133222,11111222,99999999' 
WAVCIS,ioos:station:WAVCIS:CSI16:1,2012-05-06T23:00:00Z,29.4012,-89.0355,10.36,186.0,0.182,-99999.0,'11133222,11111222,99999999' 
WAVCIS,ioos:station:WAVCIS:CSI16:1,2012-05-07T00:00:00Z,29.4012,-89.0355,10.36,187.0,0.285,-99999.0,'11133222,11111222,99999999' 
WAVCIS,ioos:station:WAVCIS:CSI16:1,2012-05-07T01:00:00Z,29.4012,-89.0355,10.36,178.0,0.456,-99999.0,'11133222,11111222,99999999' 
WAVCIS,ioos:station:WAVCIS:CSI16:1,2012-05-07T02:00:00Z,29.4012,-89.0355,10.36,177.0,0.226,-99999.0,'11133222,11111222,99999999' 
WAVCIS,ioos:station:WAVCIS:CSI16:1,2012-05-07T03:00:00Z,29.4012,-89.0355,10.36,221.0,0.208,-99999.0,'11133222,11111222,99999999' 
WAVCIS,ioos:station:WAVCIS:CSI16:1,2012-05-07T04:00:00Z,29.4012,-89.0355,10.36,228.0,0.137,-99999.0,'11133222,11111222,99999999' 
WAVCIS,ioos:station:WAVCIS:CSI16:1,2012-05-07T05:00:00Z,29.4012,-89.0355,10.36,232.0,0.162,-99999.0,'11133222,11111222,99999999' 
WAVCIS,ioos:station:WAVCIS:CSI16:1,2012-05-07T06:00:00Z,29.4012,-89.0355,10.36,216.0,0.155,-99999.0,'11133222,11111222,99999999' 
WAVCIS,ioos:station:WAVCIS:CSI16:1,2012-05-07T07:00:00Z,29.4012,-89.0355,10.36,185.0,0.162,-99999.0,'11133222,11111222,99999999' 
WAVCIS,ioos:station:WAVCIS:CSI16:1,2012-05-07T08:00:00Z,29.4012,-89.0355,10.86,190.0,0.096,-99999.0,'11133222,11111222,99999999' 
WAVCIS,ioos:station:WAVCIS:CSI16:1,2012-05-07T09:00:00Z,29.4012,-89.0355,10.86,219.0,0.14,-99999.0,'11133222,11111222,99999999' 
WAVCIS,ioos:station:WAVCIS:CSI16:1,2012-05-07T10:00:00Z,29.4012,-89.0355,10.86,214.0,0.14,-99999.0,'11133222,11111222,99999999' 
WAVCIS,ioos:station:WAVCIS:CSI16:1,2012-05-07T11:00:00Z,29.4012,-89.0355,10.86,243.0,0.135,-99999.0,'11133222,11111222,99999999' 
WAVCIS,ioos:station:WAVCIS:CSI16:1,2012-05-07T12:00:00Z,29.4012,-89.0355,10.86,263.0,0.107,-99999.0,'11133222,11111222,99999999' 
WAVCIS,ioos:station:WAVCIS:CSI16:1,2012-05-07T13:00:00Z,29.4012,-89.0355,10.86,270.0,0.111,-99999.0,'11133222,11111222,99999999' 
WAVCIS,ioos:station:WAVCIS:CSI16:1,2012-05-07T14:00:00Z,29.4012,-89.0355,10.86,281.0,0.124,-99999.0,'11133222,11111222,99999999' 
WAVCIS,ioos:station:WAVCIS:CSI16:1,2012-05-07T15:00:00Z,29.4012,-89.0355,10.86,293.0,0.071,-99999.0,'11133222,11111222,99999999' 
WAVCIS,ioos:station:WAVCIS:CSI16:1,2012-05-07T16:00:00Z,29.4012,-89.0355,10.86,294.0,0.074,-99999.0,'11133222,11111222,99999999' 
WAVCIS,ioos:station:WAVCIS:CSI16:1,2012-05-07T17:00:00Z,29.4012,-89.0355,10.86,296.0,0.037,-99999.0,'11133222,11111222,99999999' 
WAVCIS,ioos:station:WAVCIS:CSI16:1,2012-05-07T18:00:00Z,29.4012,-89.0355,10.86,219.0,0.014,-99999.0,'11133222,11111222,99999999' 
WAVCIS,ioos:station:WAVCIS:CSI16:1,2012-05-07T19:00:00Z,29.4012,-89.0355,10.86,187.0,0.008,-99999.0,'11133222,11111222,99999999' 
WAVCIS,ioos:station:WAVCIS:CSI16:1,2012-05-07T20:00:00Z,29.4012,-89.0355,10.86,246.0,0.03,-99999.0,'11133222,11111222,99999999' 
WAVCIS,ioos:station:WAVCIS:CSI16:1,2012-05-07T21:00:00Z,29.4012,-89.0355,10.36,88.0,0.145,-99999.0,'11133222,11111222,99999999' 
WAVCIS,ioos:station:WAVCIS:CSI16:1,2012-05-07T22:00:00Z,29.4012,-89.0355,10.36,93.0,0.179,-99999.0,'11133222,11111222,99999999' 
WAVCIS,ioos:station:WAVCIS:CSI16:1,2012-05-07T23:00:00Z,29.4012,-89.0355,10.36,113.0,0.245,-99999.0,'11133222,11111222,99999999' 
WAVCIS,ioos:station:WAVCIS:CSI16:1,2012-05-08T00:00:00Z,29.4012,-89.0355,10.36,148.0,0.272,-99999.0,'11133222,11111222,99999999' 
WAVCIS,ioos:station:WAVCIS:CSI16:1,2012-05-08T01:00:00Z,29.4012,-89.0355,10.36,192.0,0.21,-99999.0,'11133222,11111222,99999999' 
WAVCIS,ioos:station:WAVCIS:CSI16:1,2012-05-08T02:00:00Z,29.4012,-89.0355,10.36,152.0,0.344,-99999.0,'11133222,11111222,99999999' 
WAVCIS,ioos:station:WAVCIS:CSI16:1,2012-05-08T03:00:00Z,29.4012,-89.0355,10.36,151.0,0.361,-99999.0,'11133222,11111222,99999999' 
WAVCIS,ioos:station:WAVCIS:CSI16:1,2012-05-08T04:00:00Z,29.4012,-89.0355,10.36,188.0,0.192,-99999.0,'11133222,11111222,99999999' 
WAVCIS,ioos:station:WAVCIS:CSI16:1,2012-05-08T05:00:00Z,29.4012,-89.0355,10.36,186.0,0.158,-99999.0,'11133222,11111222,99999999' 
WAVCIS,ioos:station:WAVCIS:CSI16:1,2012-05-08T06:00:00Z,29.4012,-89.0355,10.36,189.0,0.178,-99999.0,'11133222,11111222,99999999' 
WAVCIS,ioos:station:WAVCIS:CSI16:1,2012-05-08T07:00:00Z,29.4012,-89.0355,10.36,156.0,0.18,-99999.0,'11133222,11111222,99999999' 
WAVCIS,ioos:station:WAVCIS:CSI16:1,2012-05-08T08:00:00Z,29.4012,-89.0355,10.86,211.0,0.225,-99999.0,'11133222,11111222,99999999' 
WAVCIS,ioos:station:WAVCIS:CSI16:1,2012-05-08T09:00:00Z,29.4012,-89.0355,10.86,212.0,0.262,-99999.0,'11133222,11111222,99999999' 
WAVCIS,ioos:station:WAVCIS:CSI16:1,2012-05-08T10:00:00Z,29.4012,-89.0355,10.86,217.0,0.252,-99999.0,'11133222,11111222,99999999' 
WAVCIS,ioos:station:WAVCIS:CSI16:1,2012-05-08T11:00:00Z,29.4012,-89.0355,10.86,220.0,0.229,-99999.0,'11133222,11111222,99999999' 
WAVCIS,ioos:station:WAVCIS:CSI16:1,2012-05-08T12:00:00Z,29.4012,-89.0355,10.86,233.0,0.242,-99999.0,'11133222,11111222,99999999' 
WAVCIS,ioos:station:WAVCIS:CSI16:1,2012-05-08T13:00:00Z,29.4012,-89.0355,10.86,242.0,0.242,-99999.0,'11133222,11111222,99999999' 
WAVCIS,ioos:station:WAVCIS:CSI16:1,2012-05-08T14:00:00Z,29.4012,-89.0355,10.86,238.0,0.19,-99999.0,'11133222,11111222,99999999' 